UAL1584 KEGE-KDEN

Flight info

Callsign UAL1584
Flight time 0h 35m
Altitude 25000
Route APRES2 BELGN LONGZ LONGZ4
Aircraft A319/M-SDE3FGHIRWY/LB1

Departure

Time 2026-05-05 06:15
Airport Eagle County Regional Airport (KEGE)

Arrival

Time 2026-05-05 06:50
Airport Denver International Airport (KDEN)
Time Latitude Longitude Altitude Speed Heading
2026-05-05 06:03 39.64050 -106.91538 6527 ft 0 kts 172°
2026-05-05 06:07 39.64063 -106.91540 6529 ft 3 kts 172°
2026-05-05 06:08 39.64081 -106.91544 6525 ft 3 kts 172°
2026-05-05 06:08 39.64099 -106.91547 6525 ft 3 kts 172°
2026-05-05 06:08 39.64118 -106.91550 6528 ft 3 kts 172°
2026-05-05 06:08 39.64129 -106.91552 6526 ft 0 kts 172°
2026-05-05 06:10 39.64120 -106.91535 6528 ft 5 kts 118°
2026-05-05 06:10 39.64121 -106.91468 6527 ft 10 kts 83°
2026-05-05 06:11 39.64132 -106.91356 6527 ft 15 kts 83°
2026-05-05 06:11 39.64149 -106.91192 6528 ft 21 kts 82°
2026-05-05 06:11 39.64171 -106.91002 6532 ft 18 kts 81°
2026-05-05 06:11 39.64209 -106.90928 6536 ft 6 kts 352°
2026-05-05 06:12 39.64244 -106.90882 6538 ft 10 kts 76°
2026-05-05 06:12 39.64256 -106.90783 6540 ft 13 kts 81°
2026-05-05 06:12 39.64273 -106.90637 6540 ft 20 kts 82°
2026-05-05 06:12 39.64294 -106.90435 6544 ft 25 kts 82°
2026-05-05 06:13 39.64317 -106.90215 6550 ft 23 kts 82°
2026-05-05 06:13 39.64336 -106.90059 6551 ft 14 kts 75°
2026-05-05 06:13 39.64429 -106.90033 6552 ft 18 kts 317°
2026-05-05 06:13 39.64428 -106.90218 6549 ft 19 kts 262°
2026-05-05 06:14 39.64425 -106.90241 6549 ft 0 kts 263°
2026-05-05 06:14 39.64419 -106.90298 6548 ft 28 kts 262°
2026-05-05 06:14 39.64351 -106.90919 6538 ft 109 kts 262°
2026-05-05 06:14 39.64211 -106.92211 6535 ft 173 kts 261°
2026-05-05 06:15 39.64080 -106.93723 7420 ft 165 kts 262°
2026-05-05 06:15 39.63956 -106.95161 8266 ft 156 kts 263°
2026-05-05 06:15 39.63822 -106.96584 8764 ft 165 kts 262°
2026-05-05 06:15 39.63666 -106.98107 9036 ft 175 kts 262°
2026-05-05 06:16 39.63529 -106.99725 9231 ft 191 kts 269°
2026-05-05 06:16 39.64052 -107.01414 9290 ft 220 kts 312°
2026-05-05 06:16 39.65455 -107.02242 9813 ft 230 kts 355°
2026-05-05 06:16 39.66980 -107.01651 10416 ft 236 kts 35°
2026-05-05 06:17 39.68152 -107.00154 11149 ft 237 kts 49°
2026-05-05 06:17 39.69165 -106.98452 11924 ft 240 kts 52°
2026-05-05 06:17 39.70144 -106.96684 12665 ft 243 kts 52°
2026-05-05 06:17 39.71168 -106.94835 13201 ft 261 kts 51°
2026-05-05 06:18 39.72252 -106.92911 14019 ft 266 kts 50°
2026-05-05 06:18 39.73367 -106.90968 14820 ft 270 kts 50°
2026-05-05 06:18 39.74508 -106.89014 15636 ft 273 kts 50°
2026-05-05 06:18 39.75686 -106.87017 15991 ft 288 kts 50°
2026-05-05 06:19 39.76959 -106.84871 16161 ft 311 kts 50°
2026-05-05 06:19 39.78329 -106.82565 16307 ft 334 kts 50°
2026-05-05 06:19 39.79797 -106.80098 16436 ft 356 kts 50°
2026-05-05 06:19 39.81355 -106.77476 16567 ft 376 kts 50°
2026-05-05 06:20 39.82984 -106.74732 16835 ft 390 kts 50°
2026-05-05 06:20 39.84654 -106.71912 17384 ft 395 kts 51°
2026-05-05 06:20 39.86334 -106.69064 17997 ft 399 kts 50°
2026-05-05 06:20 39.88035 -106.66180 18527 ft 404 kts 50°
2026-05-05 06:21 39.89755 -106.63263 19035 ft 408 kts 50°
2026-05-05 06:21 39.91492 -106.60322 19542 ft 411 kts 50°
2026-05-05 06:21 39.93244 -106.57351 20067 ft 415 kts 50°
2026-05-05 06:21 39.95012 -106.54349 20591 ft 419 kts 50°
2026-05-05 06:22 39.96792 -106.51316 21109 ft 423 kts 51°
2026-05-05 06:22 39.98588 -106.48254 21604 ft 427 kts 51°
2026-05-05 06:22 40.00399 -106.45167 22073 ft 430 kts 51°
2026-05-05 06:22 40.02226 -106.42054 22542 ft 434 kts 51°
2026-05-05 06:23 40.04090 -106.38876 23008 ft 437 kts 51°
2026-05-05 06:23 40.05944 -106.35716 23458 ft 440 kts 51°
2026-05-05 06:23 40.07811 -106.32525 23811 ft 444 kts 50°
2026-05-05 06:23 40.09692 -106.29301 24153 ft 448 kts 50°
2026-05-05 06:24 40.11587 -106.26047 24501 ft 452 kts 50°
2026-05-05 06:24 40.13394 -106.22661 24796 ft 457 kts 57°
2026-05-05 06:24 40.14944 -106.19022 24882 ft 460 kts 59°
2026-05-05 06:24 40.16488 -106.15346 24898 ft 462 kts 59°
2026-05-05 06:25 40.18033 -106.11664 24883 ft 462 kts 59°
2026-05-05 06:25 40.19580 -106.07978 24896 ft 462 kts 59°
2026-05-05 06:25 40.21127 -106.04294 24898 ft 462 kts 59°
2026-05-05 06:25 40.22676 -106.00611 24895 ft 462 kts 59°
2026-05-05 06:26 40.24223 -105.96932 24888 ft 462 kts 59°
2026-05-05 06:26 40.25769 -105.93243 25022 ft 462 kts 59°
2026-05-05 06:26 40.27310 -105.89552 25012 ft 462 kts 59°
2026-05-05 06:26 40.28848 -105.85860 24991 ft 462 kts 59°
2026-05-05 06:27 40.30384 -105.82167 24986 ft 461 kts 59°
2026-05-05 06:27 40.33444 -105.74802 24950 ft 459 kts 59°
2026-05-05 06:27 40.34971 -105.71126 24929 ft 459 kts 59°
2026-05-05 06:28 40.36472 -105.67433 24900 ft 460 kts 63°
2026-05-05 06:28 40.37506 -105.63467 24878 ft 462 kts 77°
2026-05-05 06:28 40.37852 -105.59285 24868 ft 463 kts 90°
2026-05-05 06:28 40.37505 -105.55100 24864 ft 461 kts 103°
2026-05-05 06:29 40.36850 -105.51028 24838 ft 450 kts 103°
2026-05-05 06:29 40.36211 -105.47071 24690 ft 438 kts 103°
2026-05-05 06:29 40.35584 -105.43200 24386 ft 431 kts 103°
2026-05-05 06:29 40.34945 -105.39403 24238 ft 420 kts 107°
2026-05-05 06:30 40.33899 -105.35924 24035 ft 402 kts 121°
2026-05-05 06:30 40.32375 -105.32937 23527 ft 389 kts 131°
2026-05-05 06:30 40.30725 -105.30158 22858 ft 383 kts 130°
2026-05-05 06:30 40.29076 -105.27391 22194 ft 378 kts 130°
2026-05-05 06:31 40.27491 -105.24728 21530 ft 374 kts 130°
2026-05-05 06:31 40.25901 -105.22058 20872 ft 369 kts 130°
2026-05-05 06:31 40.24312 -105.19386 20214 ft 365 kts 130°
2026-05-05 06:31 40.22761 -105.16780 19583 ft 361 kts 130°
2026-05-05 06:32 40.21226 -105.14200 18969 ft 357 kts 130°
2026-05-05 06:32 40.19709 -105.11646 18365 ft 354 kts 130°
2026-05-05 06:32 40.18209 -105.09121 17698 ft 350 kts 129°
2026-05-05 06:32 40.16725 -105.06622 17047 ft 346 kts 129°
2026-05-05 06:33 40.15261 -105.04157 16454 ft 340 kts 129°
2026-05-05 06:33 40.13732 -105.01853 16168 ft 334 kts 138°
2026-05-05 06:33 40.12081 -104.99730 15776 ft 333 kts 138°
2026-05-05 06:33 40.10436 -104.97609 15534 ft 331 kts 138°
2026-05-05 06:34 40.08799 -104.95503 15288 ft 330 kts 138°
2026-05-05 06:34 40.07166 -104.93407 15080 ft 328 kts 138°
2026-05-05 06:34 40.05543 -104.91320 14848 ft 327 kts 138°
2026-05-05 06:34 40.03925 -104.89233 14621 ft 326 kts 137°
2026-05-05 06:35 40.02312 -104.87151 14392 ft 325 kts 138°
2026-05-05 06:35 40.00705 -104.85084 14170 ft 324 kts 138°
2026-05-05 06:35 39.99077 -104.83069 13944 ft 321 kts 144°
2026-05-05 06:35 39.97203 -104.81555 13720 ft 315 kts 159°
2026-05-05 06:36 39.95135 -104.80702 13406 ft 310 kts 174°
2026-05-05 06:36 39.93020 -104.80516 12931 ft 301 kts 185°
2026-05-05 06:36 39.90935 -104.80585 12425 ft 298 kts 184°
2026-05-05 06:36 39.89535 -104.80625 12112 ft 298 kts 184°
2026-05-05 06:37 39.87457 -104.80679 11754 ft 298 kts 183°
2026-05-05 06:37 39.85386 -104.80736 11346 ft 299 kts 183°
2026-05-05 06:37 39.83320 -104.80797 11138 ft 294 kts 183°
2026-05-05 06:37 39.81298 -104.80844 11013 ft 286 kts 182°
2026-05-05 06:38 39.79333 -104.80878 10911 ft 279 kts 182°
2026-05-05 06:38 39.77412 -104.80902 10748 ft 275 kts 182°
2026-05-05 06:38 39.75510 -104.80920 10553 ft 272 kts 181°
2026-05-05 06:38 39.73633 -104.80934 10379 ft 268 kts 181°
2026-05-05 06:39 39.71779 -104.80947 10230 ft 264 kts 181°
2026-05-05 06:39 39.69956 -104.80962 10104 ft 259 kts 181°
2026-05-05 06:39 39.68171 -104.80977 9981 ft 254 kts 181°
2026-05-05 06:39 39.66425 -104.80991 9912 ft 248 kts 181°
2026-05-05 06:40 39.64707 -104.81006 9853 ft 246 kts 181°
2026-05-05 06:40 39.63000 -104.81021 9817 ft 245 kts 181°
2026-05-05 06:40 39.61307 -104.80850 9764 ft 246 kts 163°
2026-05-05 06:40 39.59864 -104.79692 9712 ft 247 kts 133°
2026-05-05 06:41 39.59088 -104.77743 9655 ft 245 kts 103°
2026-05-05 06:41 39.59200 -104.75555 9602 ft 248 kts 74°
2026-05-05 06:41 39.59845 -104.73473 9549 ft 249 kts 68°
2026-05-05 06:41 39.60561 -104.71427 9478 ft 249 kts 67°
2026-05-05 06:42 39.61313 -104.69404 9420 ft 250 kts 60°
2026-05-05 06:42 39.62735 -104.68279 9839 ft 245 kts
2026-05-05 06:42 39.64430 -104.68578 10205 ft 258 kts 341°
2026-05-05 06:42 39.66055 -104.69551 9991 ft 254 kts 324°
2026-05-05 06:43 39.67369 -104.71040 10089 ft 250 kts 307°
2026-05-05 06:43 39.68300 -104.72923 10193 ft 247 kts 290°
2026-05-05 06:43 39.68786 -104.75067 10321 ft 244 kts 275°
2026-05-05 06:43 39.68808 -104.77218 10329 ft 241 kts 259°
2026-05-05 06:44 39.68346 -104.79312 10212 ft 238 kts 242°
2026-05-05 06:44 39.67411 -104.81040 10009 ft 233 kts 218°
2026-05-05 06:44 39.65976 -104.81915 9792 ft 230 kts 187°
2026-05-05 06:44 39.64416 -104.81628 9555 ft 230 kts 155°
2026-05-05 06:45 39.63226 -104.80266 9334 ft 233 kts 122°
2026-05-05 06:45 39.62779 -104.78254 9110 ft 236 kts 94°
2026-05-05 06:45 39.62811 -104.76122 8938 ft 237 kts 89°
2026-05-05 06:45 39.62907 -104.73993 8906 ft 236 kts 88°
2026-05-05 06:46 39.63224 -104.71904 8907 ft 240 kts 65°
2026-05-05 06:46 39.64149 -104.70092 8911 ft 242 kts 53°
2026-05-05 06:46 39.65200 -104.68384 8896 ft 243 kts 52°
2026-05-05 06:46 39.66489 -104.66961 8638 ft 245 kts 29°
2026-05-05 06:47 39.68091 -104.66270 8363 ft 244 kts
2026-05-05 06:47 39.69783 -104.66206 8054 ft 244 kts
2026-05-05 06:47 39.71478 -104.66191 7738 ft 244 kts
2026-05-05 06:47 39.73145 -104.66173 7448 ft 232 kts
2026-05-05 06:48 39.74677 -104.66155 7135 ft 204 kts
2026-05-05 06:48 39.75993 -104.66139 6883 ft 176 kts
2026-05-05 06:48 39.77144 -104.66126 6686 ft 157 kts
2026-05-05 06:48 39.78203 -104.66112 6489 ft 149 kts
2026-05-05 06:49 39.79228 -104.66099 6282 ft 146 kts
2026-05-05 06:49 39.80240 -104.66086 6062 ft 145 kts
2026-05-05 06:49 39.81263 -104.66087 5790 ft 144 kts
2026-05-05 06:49 39.82271 -104.66069 5619 ft 146 kts
2026-05-05 06:50 39.83272 -104.66047 5438 ft 135 kts
2026-05-05 06:50 39.84063 -104.66039 5411 ft 89 kts
2026-05-05 06:50 39.84553 -104.66036 5402 ft 65 kts
2026-05-05 06:50 39.84938 -104.66177 5406 ft 45 kts 329°
2026-05-05 06:51 39.85219 -104.66239 5393 ft 41 kts
2026-05-05 06:51 39.85512 -104.66237 5394 ft 40 kts
2026-05-05 06:51 39.85811 -104.66235 5390 ft 45 kts
2026-05-05 06:51 39.86073 -104.66239 5386 ft 31 kts 339°
2026-05-05 06:52 39.86106 -104.66475 5378 ft 25 kts 272°
2026-05-05 06:52 39.86128 -104.66707 5378 ft 27 kts 269°
2026-05-05 06:52 39.86128 -104.66957 5378 ft 28 kts 270°
2026-05-05 06:52 39.86130 -104.67222 5378 ft 30 kts 270°
2026-05-05 06:53 39.86131 -104.67500 5378 ft 31 kts 270°
2026-05-05 06:53 39.86108 -104.67767 5378 ft 25 kts 224°
2026-05-05 06:53 39.86018 -104.67847 5377 ft 10 kts 209°
2026-05-05 06:53 39.85964 -104.67854 5378 ft 4 kts 180°
2026-05-05 06:54 39.85945 -104.67854 5380 ft 1 kts 180°
2026-05-05 06:54 39.85937 -104.67855 5380 ft 0 kts 180°